Theta_e
320 318 318 318 320 315 316 318 319 317 317 318 318 318 317 317 317 317 319 319 320 320 320 321 321 320 322 323 326 327 327 327 331 332 331 332 332 331 331 330 328 322 319 318
318 318 314 313 317 319 317 317 316 316 316 316 315 316 315 315 315 316 316 317 318 319 320 320 320 320 320 321 324 327 327 327 328 330 330 330 329 328 330 331 331 328 323 321
313 312 314 314 316 320 320 320 316 317 317 315 316 318 316 314 316 318 318 319 319 320 321 321 320 320 320 320 322 325 326 326 327 328 331 331 332 330 329 330 331 331 329 325
314 313 314 315 315 317 318 318 315 317 318 317 316 316 315 314 314 314 317 318 319 320 320 319 319 319 320 320 320 320 324 326 327 329 330 331 331 329 323 324 327 329 330 329
314 313 314 316 316 316 315 316 317 316 316 318 317 318 316 315 315 314 315 317 318 318 318 318 318 319 321 320 320 320 320 322 326 328 329 329 331 328 326 324 324 325 327 328
311 312 313 314 314 316 314 315 316 315 316 318 315 317 316 316 314 314 316 318 318 317 317 318 318 320 321 320 320 320 321 321 323 327 328 330 328 328 328 327 326 327 329 329
312 312 311 315 315 314 317 318 320 321 319 319 313 318 317 312 311 312 313 317 315 316 317 317 316 318 318 320 322 322 323 323 325 328 329 330 330 330 329 329 329 330 331 331
310 311 312 311 315 316 317 317 317 314 317 316 313 319 317 313 315 315 316 315 316 316 315 309 308 308 311 314 317 319 322 324 326 328 328 329 330 331 331 331 329 329 330 330
310 310 310 311 312 314 316 319 313 313 305 311 313 314 313 312 312 314 314 315 314 313 308 307 307 306 307 307 308 312 314 315 320 325 327 328 328 329 329 330 330 329 327 326
307 309 308 311 313 312 314 313 317 317 317 315 314 315 314 313 313 310 309 311 312 309 307 307 305 305 305 305 305 307 309 311 311 311 312 313 314 317 320 321 324 326 326 326
305 306 308 308 312 314 315 314 313 312 314 312 311 313 309 311 311 309 308 311 309 308 307 306 304 304 304 304 305 309 310 309 309 308 308 309 311 312 313 313 313 314 320 322
306 305 308 310 307 310 312 313 313 314 313 312 312 311 309 309 309 308 310 308 308 307 307 306 304 304 305 305 306 307 307 307 304 303 303 303 303 306 309 311 312 313 313 313
308 306 303 309 310 309 312 312 312 311 308 312 315 312 307 306 305 308 308 307 307 306 307 304 304 304 304 304 304 303 302 301 301 301 301 301 301 301 301 302 305 309 311 311
309 305 309 308 308 310 312 312 312 313 314 312 313 312 309 307 305 305 306 307 306 304 303 303 303 303 302 302 301 301 301 300 300 301 300 300 299 299 299 300 301 302 303 305
309 309 303 305 306 309 310 311 311 314 314 313 312 311 309 307 306 307 308 306 302 301 301 300 300 300 301 300 299 299 299 299 299 299 299 299 299 299 299 299 299 300 300 302
307 309 305 303 305 305 303 310 310 312 313 312 310 309 308 308 307 300 298 299 297 296 296 296 295 295 295 296 296 297 298 298 299 299 299 299 299 299 299 299 299 299 299 300
309 306 308 310 305 305 303 305 307 309 307 311 312 312 306 302 297 294 293 293 292 292 292 293 294 294 294 294 295 296 297 297 298 299 299 299 300 299 299 299 299 298 299 299
309 308 307 303 303 309 305 301 303 306 304 305 303 295 294 294 290 289 289 289 289 290 290 290 292 294 294 294 295 295 296 297 298 298 298 298 299 299 299 299 298 298 298 299
308 307 300 306 305 300 302 300 302 303 304 293 293 290 290 291 290 286 286 287 287 287 287 287 289 290 291 292 293 295 296 296 297 297 297 297 297 297 297 297 297 297 297 298
308 307 306 295 304 302 301 296 296 300 304 287 289 287 287 289 294 289 284 285 285 285 286 287 287 288 288 289 290 291 292 292 293 293 293 292 292 292 292 292 293 294 294 296
308 308 308 298 295 295 294 290 294 301 298 285 284 283 284 286 284 284 283 284 284 284 284 284 286 287 286 287 288 289 288 287 287 287 288 288 289 289 289 290 289 290 291 292
307 307 305 297 301 303 282 290 299 289 284 283 281 280 280 280 281 282 282 282 282 283 284 285 285 286 285 286 286 286 285 284 285 285 285 285 285 285 286 287 288 288 286 287
305 304 303 302 300 282 281 282 281 284 282 279 279 278 278 278 278 279 279 279 280 282 284 284 284 285 284 284 282 282 282 281 280 280 281 281 281 282 282 283 284 284 283 283
293 292 292 291 283 281 279 278 279 280 280 278 278 278 278 277 276 276 278 279 280 280 281 281 281 281 281 281 281 279 278 277 277 277 279 279 279 279 278 278 279 279 280 281
287 291 289 286 282 279 278 277 276 277 277 277 277 276 277 276 276 277 277 277 278 278 279 279 279 279 279 279 278 277 276 276 277 278 278 278 278 279 280 281 281 281 281 278
280 285 294 293 282 283 280 276 276 276 276 277 277 276 276 276 276 277 277 276 276 277 277 278 277 277 277 278 278 277 276 276 276 277 278 279 279 279 278 279 281 282 282 278
Wind_Speed
13 12 21 22 15 8 7 5 9 2 4 1 7 14 15 22 22 25 33 31 31 34 33 28 24 21 25 24 29 36 34 31 36 38 38 39 39 36 37 37 35 35 34 32
8 24 8 8 7 6 6 6 8 3 4 3 8 17 17 19 20 28 29 33 31 31 26 27 28 32 32 29 25 30 37 35 31 36 39 39 38 38 38 38 39 38 37 36
14 6 17 14 11 15 15 19 4 3 1 3 5 15 14 10 19 25 25 25 25 25 26 29 33 29 28 32 30 26 30 38 35 32 37 39 41 40 41 42 41 41 40 39
14 13 13 12 17 16 19 8 7 6 4 6 4 9 5 4 7 7 16 20 20 27 29 29 29 28 29 30 33 28 25 32 38 35 35 38 39 41 41 40 40 40 40 42
11 9 8 15 17 13 11 10 13 6 5 3 10 4 5 1 6 7 10 16 20 25 25 22 18 20 20 23 26 31 27 26 34 40 36 34 38 38 40 40 39 38 38 38
6 1 9 9 7 16 7 5 4 4 5 13 27 9 14 10 6 6 13 21 20 14 6 13 8 12 9 10 14 17 24 25 26 36 38 38 35 33 38 39 40 41 41 41
5 14 3 5 7 5 10 11 5 8 10 17 7 9 21 7 7 7 10 19 9 5 7 12 13 15 15 9 4 9 15 21 26 31 36 38 39 38 38 37 39 41 43 45
13 7 18 5 9 8 22 18 6 6 5 8 5 10 11 9 18 23 27 19 13 4 13 15 16 17 15 16 15 11 2 10 17 22 26 30 33 37 39 38 37 39 43 45
14 14 5 6 5 14 12 16 10 4 1 2 4 6 9 9 9 6 5 10 13 17 15 14 18 18 17 17 17 14 15 14 8 4 13 18 22 26 30 33 36 37 33 35
6 5 6 14 3 9 11 7 13 7 6 5 4 3 7 3 4 6 8 16 16 14 14 16 18 17 17 15 13 12 12 12 11 9 9 6 5 10 16 21 28 34 36 35
6 4 2 10 12 16 9 9 4 2 5 5 2 6 7 8 8 11 12 17 15 13 13 15 15 15 14 13 12 10 9 9 10 11 11 10 9 10 12 15 19 22 27 31
8 5 3 14 3 8 16 18 18 7 8 4 1 5 2 5 7 15 17 14 11 10 12 13 14 14 12 11 10 11 9 9 14 17 18 19 18 18 17 17 17 17 20 22
12 4 3 3 3 2 8 8 16 4 3 6 8 7 3 12 10 19 17 10 9 9 11 11 10 10 9 8 8 10 12 15 16 19 22 23 24 24 25 25 24 24 25 23
22 4 16 14 8 7 13 16 12 16 11 11 12 16 3 4 7 12 9 7 7 12 10 10 9 8 8 9 10 12 13 18 21 22 25 27 30 31 31 31 31 29 29 30
14 18 3 1 1 5 11 19 18 15 23 13 22 14 9 8 7 13 6 6 12 16 14 12 9 8 9 13 17 18 19 23 25 28 30 33 35 37 39 40 38 36 34 33
8 9 6 1 2 6 1 12 16 21 20 15 7 7 5 6 11 13 15 16 16 12 10 8 8 10 15 21 24 26 28 30 33 35 36 38 42 45 48 49 48 47 45 41
15 7 9 17 3 5 6 12 10 7 5 13 18 10 6 4 9 9 11 12 11 10 10 12 15 19 24 28 31 33 36 39 41 42 43 45 48 51 54 56 57 57 54 51
17 16 3 3 4 9 5 4 12 16 9 13 4 5 8 11 17 15 11 9 8 9 12 16 20 23 27 31 34 38 41 44 47 49 52 54 57 59 61 62 62 62 60 60
14 8 3 4 5 3 3 4 8 8 12 3 8 7 7 16 11 6 9 9 8 10 15 19 23 27 31 34 38 41 44 47 50 53 56 59 61 64 64 65 63 62 62 61
8 12 6 3 5 8 5 4 4 6 14 6 10 8 5 12 6 3 9 10 11 14 19 23 26 30 32 35 38 41 44 46 47 48 50 52 54 56 59 59 62 62 60 63
7 7 11 4 2 7 1 4 4 8 3 11 14 8 5 3 2 3 8 10 14 17 20 23 26 29 31 33 35 36 38 39 41 44 46 48 49 52 55 58 58 61 63 63
8 7 4 3 2 8 5 2 9 5 12 15 12 8 7 4 2 6 10 13 16 19 21 23 26 26 27 29 31 33 34 37 39 41 43 45 46 46 48 51 55 56 54 56
4 4 6 4 4 5 7 12 10 9 13 9 9 5 4 4 3 7 10 12 16 19 20 21 23 24 25 27 29 32 33 36 40 42 46 48 50 50 50 53 54 52 52 46
3 5 4 5 4 6 9 10 12 13 13 10 6 5 5 6 5 6 9 12 15 18 21 23 24 26 27 28 28 30 33 36 40 44 47 50 52 53 50 47 47 51 53 46
3 3 7 5 9 8 3 6 7 10 9 9 7 6 5 6 5 8 10 12 14 16 19 21 23 25 27 29 30 31 34 38 42 45 47 49 51 53 56 54 54 53 54 45
3 1 2 2 17 4 9 11 6 7 7 7 7 6 5 6 7 9 10 12 15 18 20 22 24 27 28 30 32 33 35 37 41 45 48 50 52 53 54 56 61 55 54 48
Wind_Direction
180 191 212 201 206 196 173 192 211 204 229 265 238 258 264 269 270 268 271 274 271 272 279 281 280 281 278 273 260 252 252 254 249 246 248 249 251 253 254 255 255 254 253 253
183 220 187 174 182 200 190 211 222 290 241 227 280 268 271 266 259 260 264 272 277 278 278 279 282 286 278 269 268 256 248 248 250 250 252 252 255 257 258 259 259 260 258 257
202 226 168 178 188 205 221 223 148 187 149 257 342 285 256 252 250 256 259 263 268 270 270 275 285 285 272 259 259 260 256 249 250 250 250 252 252 255 256 256 257 257 258 260
225 232 197 189 207 195 221 176 162 182 149 242 143 276 241 240 261 240 256 256 256 266 270 279 287 282 275 259 254 257 260 255 250 251 250 253 256 258 264 262 264 263 262 262
207 162 176 196 209 173 225 167 199 186 218 8 258 257 291 265 267 273 267 266 265 264 280 284 298 303 276 253 254 254 255 261 254 250 252 256 258 266 267 266 267 268 267 266
206 265 174 200 180 184 134 89 109 145 182 236 240 207 263 235 225 237 239 259 265 290 325 320 332 322 314 260 254 254 252 258 264 255 255 254 260 267 266 270 269 270 271 273
211 241 276 178 140 151 190 163 195 210 215 234 166 196 247 241 240 218 227 256 270 336 7 90 75 69 59 42 289 252 255 259 262 262 259 260 262 264 266 274 278 280 281 282
196 220 211 190 202 187 202 205 186 204 208 224 154 208 241 228 248 248 255 258 263 168 123 93 82 70 68 61 57 54 310 270 272 276 277 277 276 273 274 278 282 286 288 292
191 224 184 175 147 173 194 219 197 125 75 82 199 281 309 246 252 242 239 193 161 124 95 75 76 66 69 61 52 54 59 59 45 311 284 288 293 293 292 292 291 288 289 292
203 197 210 186 151 211 182 147 210 219 182 209 245 257 228 255 231 130 113 122 119 103 79 72 64 56 53 55 54 48 51 58 58 52 41 18 322 285 286 289 291 293 292 291
155 134 246 151 202 196 190 212 211 185 156 190 208 251 220 204 173 160 149 132 118 102 73 72 59 44 36 39 44 50 47 36 35 31 20 2 348 333 318 302 297 291 286 287
183 142 160 206 272 183 209 211 208 209 213 226 137 265 325 215 152 143 145 130 110 88 71 82 50 36 37 42 47 42 37 28 20 9 4 1 353 344 337 331 328 322 307 294
173 193 91 27 357 275 204 208 209 174 83 197 212 247 32 121 132 151 145 130 100 72 75 68 41 59 63 53 42 28 16 10 4 358 358 356 351 344 340 334 325 319 314 311
169 149 202 207 220 144 206 205 199 204 216 217 211 235 100 118 132 159 151 134 76 80 73 77 74 71 47 27 12 360 351 350 347 346 346 345 344 341 335 329 326 321 315 310
184 211 147 245 105 199 203 212 206 203 219 203 228 227 193 189 170 182 176 79 89 80 76 70 54 25 4 345 345 343 341 339 340 340 340 339 335 332 331 328 323 320 316 311
161 211 161 189 74 78 111 209 205 213 224 230 268 253 180 194 166 95 89 96 85 74 62 46 16 349 341 340 339 336 333 333 334 334 333 331 327 325 324 322 321 318 317 313
183 158 177 220 139 79 292 210 196 196 187 206 231 233 164 115 101 78 84 82 68 39 12 355 345 342 339 338 335 332 330 329 327 326 324 322 319 318 317 316 315 314 313 312
186 189 163 151 143 208 265 177 185 201 200 219 132 91 76 111 110 109 83 64 40 13 353 343 339 336 335 334 331 328 327 325 323 322 320 317 313 311 310 310 309 309 308 307
185 164 116 160 180 302 300 175 147 169 234 131 120 119 117 139 121 93 47 28 12 351 343 339 337 336 335 332 328 324 322 319 317 315 313 310 308 306 306 305 304 304 303 302
179 174 158 161 159 208 221 106 35 95 255 103 118 125 167 160 190 136 344 349 347 344 343 340 341 341 339 336 330 327 325 323 318 314 311 310 309 308 306 304 302 300 299 296
177 186 193 149 185 283 61 327 338 159 215 104 105 99 67 116 86 307 326 341 346 348 348 346 346 347 346 342 337 335 334 331 328 324 320 317 315 312 309 306 303 300 299 296
169 155 155 91 124 261 4 308 185 82 102 117 110 104 101 97 7 343 351 352 353 355 356 354 352 355 351 350 346 344 341 335 330 327 325 323 321 318 314 310 307 304 301 294
196 193 167 180 193 93 44 102 102 139 130 120 127 123 110 101 30 8 5 2 2 360 358 355 352 353 354 354 350 343 342 339 337 335 334 333 331 329 324 319 314 310 303 297
8 5 91 131 147 125 117 107 116 125 124 123 117 111 91 72 47 22 12 9 5 360 356 352 350 349 350 349 349 344 341 339 339 336 339 338 335 332 328 318 310 304 298 292
347 348 121 84 125 114 139 137 127 121 120 116 111 100 82 78 44 25 18 8 3 357 352 351 348 346 345 345 347 345 342 342 339 339 339 338 338 335 330 325 318 311 304 293
16 29 191 162 158 111 140 157 141 128 121 109 107 94 74 57 34 17 11 4 1 355 349 347 347 343 343 343 343 343 343 341 340 337 339 340 339 336 332 327 321 316 310 301